sat.trackr.live / text

‹ back to catalog

STARLINK-32827

NORAD 63043 · 2025-034Q

PAYLOAD ACTIVE UNKNOWN

§ Identity

Operator
Country
US
Launch date
2025-02-18
Launch site
AFETR
Launch vehicle
Mass (kg)
RCS (m²)

Purposes: comms

External: N2YO · Heavens-Above · Gunter

§ Orbital elements

Epoch: 2026-09-21T19:57:26.575776Z

Period
93.85 min
Inclination
53.1573°
Eccentricity
0.0001110
Mean motion
15.34395544 rev/d
Perigee alt
462.0 km
Apogee alt
463.5 km
Semi-major
6,840.9 km
B*
3.1956e-4
RAAN
75.8346°
Arg perigee
95.0404°
Mean anomaly
265.0725°
Rev number
8,899

§ Raw data

STARLINK-328271 63043U 25034Q   26264.83155759  .00010434  00000+0  31956-3 0  99912 63043  53.1573  75.8346 0001110  95.0404 265.0725 15.34395544 88994

JSON: /api/v1/satellites/63043 · /tle

For live sub-satellite position, see the globe view (requires WebGL).

§ Visibility from observer

Set your observer location to see the next 7 days of passes ≥ 10°. The values pass through the URL so the page stays shareable.

No JS? Fill the form by hand. The geolocation button needs JavaScript.